sat.trackr.live / text

‹ back to catalog

STARLINK-37932

NORAD 69564 · 2026-135U

PAYLOAD ACTIVE UNKNOWN

§ Identity

Operator
Country
US
Launch date
2026-06-15
Launch site
AFWTR
Launch vehicle
Mass (kg)
RCS (m²)

Purposes: comms

External: N2YO · Heavens-Above · Gunter

§ Orbital elements

Epoch: 2026-09-19T07:52:48.685728Z

Period
93.91 min
Inclination
97.2855°
Eccentricity
0.0000803
Mean motion
15.33446730 rev/d
Perigee alt
465.0 km
Apogee alt
466.1 km
Semi-major
6,843.7 km
B*
5.6505e-4
RAAN
290.0780°
Arg perigee
101.5424°
Mean anomaly
258.5909°
Rev number
1,482

§ Raw data

STARLINK-379321 69564U 26135U   26262.32834127  .00018212  00000+0  56505-3 0  99922 69564  97.2855 290.0780 0000803 101.5424 258.5909 15.33446730 14821

JSON: /api/v1/satellites/69564 · /tle

For live sub-satellite position, see the globe view (requires WebGL).

§ Visibility from observer

Set your observer location to see the next 7 days of passes ≥ 10°. The values pass through the URL so the page stays shareable.

No JS? Fill the form by hand. The geolocation button needs JavaScript.